Weather in Kapitanshchino

Russia / Lipetsk Oblast     52°42′54″N   39°46′54″E
temp.,
°C
wind,
m/s
gust,
m/s
humid.,
%
clouds,
%
prec.,
mm/h
press.,
hPa
HPBL,
m
16 april, fri
fri1600:00+11ese228298 0.0 101532
03:00+10se22864 0.0 101514
06:00+10ese118599 0.0 101612
09:00+14sse2364100 0.0 1016446
12:00+16sse2351100 0.0 10161253
15:00+17s455021 1.1 10171414
18:00+17sse35465 0.1 1016788
21:00+13ssw11585 0.1 101711
17 april, sat
sat1700:00+11sw225975 0.0 101823
03:00+11ne1159100 0.0 101813
06:00+10e2265100 0.0 101828
09:00+10wnw1171100 0.1 1017200
12:00+9se4888100 1.8 1018537
15:00+9se3485100 4.4 1019404
18:00+10s2373100 0.6 1019191
21:00+7ese35935 0.6 1020127
18 april, sun
sun1800:00+6e249463 0.0 1020105
03:00+5ese239398 0.0 102077
06:00+6se1292100 0.0 102067
09:00+8w237790 0.0 1020379
12:00+12sw335294 0.1 10201638
15:00+12sw2346100 0.1 10201649
18:00+11wsw2354100 0.0 1020280
21:00+9wnw006412 0.0 102110
19 april, mon
mon1900:00+8ese116796 0.0 102111
03:00+7e2272100 0.0 102120
06:00+6ene237597 0.0 102161
09:00+10e3463100 0.0 1021465
12:00+13e4658100 0.1 10201469
15:00+15e5852100 0.3 10191606
18:00+13e71163100 0.4 1018743
21:00+10e81477100 1.2 1018766
20 april, tue
tue2000:00+9e81480100 0.1 1017614
03:00+8e81688100 3.1 1015651
06:00+8e91886100 0.3 1013776
09:00+8ese102088100 1.9 1010890
12:00+8ese122389100 7.5 10071039
15:00+9se122489100 9.6 10061426
18:00+12se122287100 1.1 10041281
21:00+11se71493100 2.3 1004827